Temperature
5 6 6 6 6 7 7 7 7 8 8 10 10 9 10 10 11 11 11 12 12 12 13 13 13 14 14 14 15 15 15 15 15 15 15 15 15 15 14 14 13 13 13 12
5 6 6 6 6 7 7 7 7 8 8 9 9 10 9 10 10 10 11 11 11 12 12 12 13 13 14 14 14 14 14 14 15 15 15 15 14 14 14 13 13 13 12 12
5 5 5 5 6 7 7 7 7 8 9 9 8 9 9 10 10 10 10 10 11 11 11 12 12 12 13 13 13 13 14 14 14 14 14 14 14 13 13 13 13 12 12 11
4 4 4 6 7 7 7 7 8 8 8 8 8 9 10 10 10 10 10 10 10 11 11 11 11 12 12 13 13 13 13 13 13 13 13 13 13 13 12 12 12 12 11 11
4 4 4 6 6 6 6 6 7 7 8 8 8 8 8 9 9 9 9 10 10 10 10 10 11 11 11 12 12 12 12 12 12 12 12 12 12 12 12 12 11 11 11 10
3 4 4 6 7 7 7 6 7 7 7 7 7 6 7 9 9 9 9 9 9 9 10 10 10 10 10 11 11 11 11 11 11 11 11 11 12 11 11 11 11 10 10 9
3 4 5 6 6 6 6 6 7 7 7 7 6 7 8 8 8 8 8 8 9 9 9 9 9 9 9 10 10 10 10 10 10 10 11 11 11 10 10 10 10 9 9 8
3 4 4 5 5 5 6 7 7 7 7 7 7 7 7 7 7 7 8 8 8 8 8 9 9 9 9 9 9 9 9 9 10 10 10 10 9 9 9 9 9 8 8 7
4 5 5 6 6 7 7 6 7 7 7 7 6 6 6 6 7 7 7 7 7 7 8 8 8 8 8 8 8 8 8 9 9 9 9 9 8 8 8 8 8 8 7 7
3 4 4 5 6 6 7 6 6 6 6 6 6 6 6 6 6 6 6 6 6 6 7 7 7 7 7 7 7 7 7 8 8 8 8 8 8 7 8 7 7 7 6 6
3 4 4 5 6 6 6 6 6 6 5 5 5 5 5 5 5 5 5 5 5 5 6 6 6 6 6 6 6 6 6 7 7 7 7 7 7 6 7 7 7 7 6 5
3 4 4 4 5 5 5 5 5 5 5 5 4 4 4 4 4 4 4 5 5 5 5 5 5 5 5 5 5 5 6 6 6 6 6 5 5 5 5 5 5 5 5 5
4 4 4 5 5 5 4 4 4 4 4 4 4 3 3 3 3 3 3 4 3 3 3 4 4 4 4 4 4 4 5 5 5 5 5 5 5 4 4 4 3 3 3 3
4 3 3 3 4 4 3 3 3 3 3 3 3 3 2 2 2 2 2 2 2 2 2 2 3 3 3 3 3 3 4 4 4 4 4 4 4 4 3 3 3 2 2 2
3 3 2 3 3 2 2 2 2 2 2 2 2 2 2 1 1 1 1 1 1 1 1 1 2 2 2 2 3 3 3 3 3 3 3 3 3 3 2 2 2 2 2 1
2 2 1 1 1 1 1 1 1 1 1 1 1 1 1 0 0 0 0 0 0 0 1 1 1 1 1 2 2 2 2 2 2 2 2 2 2 2 1 1 1 1 1 1
-0 -0 0 0 0 0 0 0 0 0 0 0 0 -0 -0 -0 -1 -1 -1 -1 -1 -0 -0 0 0 1 1 1 1 1 1 1 1 1 1 1 1 1 1 1 0 0 0 -0
-1 -1 -1 -1 -1 -1 -1 -1 -1 -1 -1 -1 -1 -1 -1 -1 -1 -1 -1 -1 -1 -1 -1 -1 -0 -0 -0 -0 -0 0 0 -0 0 0 0 0 -0 -0 -0 -0 -0 -1 -1 -1
-2 -2 -2 -2 -2 -2 -2 -2 -2 -1 -1 -1 -2 -2 -2 -2 -2 -2 -2 -2 -2 -2 -1 -1 -1 -1 -1 -1 -1 -1 -1 -1 -1 -1 -1 -1 -1 -1 -1 -1 -1 -1 -2 -2
-3 -3 -3 -3 -3 -3 -3 -2 -2 -2 -2 -2 -2 -2 -3 -3 -3 -3 -3 -3 -3 -3 -2 -2 -2 -2 -2 -2 -2 -2 -2 -2 -2 -1 -2 -1 -1 -1 -2 -2 -2 -2 -2 -3
-4 -4 -4 -4 -4 -4 -4 -4 -4 -3 -3 -3 -3 -3 -3 -3 -3 -4 -4 -4 -3 -3 -3 -3 -3 -3 -3 -3 -3 -3 -2 -2 -2 -2 -2 -2 -2 -2 -3 -3 -3 -3 -3 -3
-5 -5 -5 -5 -5 -5 -5 -5 -4 -4 -4 -4 -4 -4 -4 -4 -4 -4 -4 -4 -4 -4 -4 -4 -4 -4 -3 -3 -3 -3 -3 -3 -3 -3 -3 -3 -3 -3 -3 -3 -3 -3 -4 -4
-6 -6 -6 -6 -6 -6 -5 -5 -5 -5 -5 -5 -5 -5 -5 -5 -5 -5 -5 -5 -5 -5 -5 -5 -5 -4 -4 -4 -4 -4 -4 -4 -4 -3 -3 -3 -3 -4 -4 -4 -4 -4 -4 -4
-6 -6 -6 -6 -6 -6 -6 -6 -6 -6 -6 -6 -6 -6 -6 -6 -6 -6 -6 -6 -6 -5 -5 -5 -5 -5 -5 -5 -4 -4 -4 -4 -4 -4 -4 -4 -4 -4 -4 -4 -5 -5 -5 -5
-7 -7 -7 -7 -7 -7 -7 -7 -7 -7 -6 -6 -6 -6 -6 -6 -6 -6 -6 -6 -6 -6 -6 -6 -6 -5 -5 -5 -5 -5 -5 -5 -5 -5 -5 -5 -5 -5 -5 -5 -5 -5 -5 -5
-7 -7 -8 -8 -8 -8 -8 -8 -8 -7 -7 -7 -7 -7 -7 -7 -7 -7 -7 -7 -7 -7 -7 -6 -6 -6 -6 -6 -6 -5 -5 -5 -5 -5 -5 -5 -5 -5 -5 -5 -6 -6 -6 -6
-8 -8 -8 -8 -8 -8 -8 -8 -8 -8 -8 -8 -8 -7 -7 -7 -7 -7 -7 -7 -7 -7 -7 -7 -7 -6 -6 -6 -6 -6 -6 -6 -5 -5 -5 -6 -6 -6 -6 -6 -6 -6 -6 -6
Wind_Speed
12 11 9 11 12 12 15 15 14 15 19 20 13 11 11 10 10 10 9 9 8 7 7 7 7 6 6 6 5 5 6 8 10 9 9 10 10 11 11 11 12 12 12 11
10 10 12 16 16 17 18 16 19 20 23 17 12 10 11 11 10 10 10 9 9 9 8 8 8 7 7 6 5 5 7 9 8 7 8 9 10 10 10 10 10 10 11 12
9 6 8 14 14 16 13 12 12 19 22 13 10 11 12 11 10 10 10 9 10 9 8 8 8 7 7 7 5 5 6 7 7 8 8 9 8 9 10 10 9 10 11 11
5 3 12 10 6 10 13 15 15 15 13 11 12 11 9 8 9 10 10 10 9 8 8 8 7 7 6 5 4 4 5 6 6 7 8 7 8 9 9 8 9 9 10 10
4 8 11 9 5 6 9 11 12 14 14 12 10 7 9 8 8 9 10 9 9 8 8 8 7 6 5 5 4 4 5 6 6 7 7 7 9 9 8 8 8 8 8 9
7 8 9 7 4 4 3 8 7 8 11 11 6 6 10 7 7 9 9 8 8 7 7 7 7 5 5 4 4 5 6 6 5 6 7 8 8 7 5 6 7 7 7 7
13 11 10 7 4 4 5 7 3 4 6 6 6 9 9 8 8 8 8 9 8 7 6 6 5 4 5 4 5 6 5 4 3 4 5 6 5 5 5 5 6 6 6 6
9 11 11 4 4 6 7 3 3 4 5 6 8 9 9 9 8 8 8 8 7 6 6 5 4 3 4 5 6 5 3 3 3 4 3 3 5 5 5 6 7 6 6 5
9 10 5 4 7 6 3 4 5 5 7 7 8 9 9 9 9 8 7 7 6 5 6 5 4 2 4 6 5 4 2 2 3 2 3 4 6 6 6 6 6 6 6 6
8 10 8 8 7 7 6 6 7 7 8 7 8 10 10 9 8 7 6 6 5 5 5 6 5 4 4 4 3 3 3 2 2 2 2 3 4 5 6 7 6 6 7 6
11 11 9 10 8 8 7 7 8 8 8 7 8 10 9 9 8 7 6 5 5 5 5 6 6 5 5 3 2 2 3 2 2 2 2 3 3 4 5 6 7 7 7 7
12 8 7 8 7 6 8 9 9 8 9 7 6 8 8 7 7 6 6 5 5 5 5 6 5 6 5 4 2 2 2 2 2 2 2 3 3 1 1 2 4 5 5 5
14 11 10 11 9 8 8 9 8 7 8 8 7 6 6 7 6 6 6 5 5 6 6 6 5 6 5 4 2 2 3 3 2 2 3 3 4 4 2 2 4 5 6 6
12 10 11 11 10 8 7 8 7 7 6 6 6 6 6 6 6 6 6 6 5 5 5 5 6 7 6 4 3 3 3 3 2 3 3 3 4 4 4 4 3 2 3 7
11 10 11 8 7 7 6 6 6 7 6 6 5 5 5 6 6 6 6 5 5 5 5 5 6 7 6 4 3 3 2 2 2 2 2 2 3 3 4 4 4 3 3 4
8 8 8 8 9 8 7 6 7 8 7 7 6 5 5 5 6 6 5 5 5 5 5 5 6 7 6 4 3 2 2 2 2 1 2 2 3 3 4 4 4 4 4 4
5 6 6 6 8 8 7 7 7 8 7 7 6 5 5 5 5 5 5 4 4 5 5 5 6 6 5 4 3 1 1 1 1 1 2 3 3 3 4 4 4 4 3 4
5 6 5 5 6 7 7 7 6 6 6 6 5 5 5 5 5 5 5 4 4 4 4 5 5 4 4 3 2 1 0 1 1 1 2 2 3 3 4 4 4 4 4 4
3 4 4 4 5 5 5 6 6 6 5 4 4 5 5 5 5 4 4 4 4 5 6 5 6 4 4 3 2 0 0 1 1 2 2 3 3 3 3 4 4 4 4 4
3 3 4 4 4 4 5 5 5 5 4 4 4 4 4 4 4 3 3 3 4 4 5 5 5 4 3 2 1 0 1 1 2 2 2 3 3 3 3 3 4 4 4 4
4 4 4 5 5 5 5 5 5 5 4 4 4 4 4 4 3 2 2 4 4 4 4 5 4 3 2 1 1 1 1 2 2 2 2 3 3 3 3 3 4 4 4 4
4 4 5 5 5 5 6 5 4 4 4 3 3 3 2 2 2 2 3 3 4 5 4 3 3 3 3 2 1 1 1 2 2 2 2 3 3 3 3 3 3 3 3 3
3 4 5 5 5 6 6 5 4 3 3 3 3 2 2 2 2 2 3 3 2 4 3 2 3 4 4 2 1 1 1 2 2 2 2 2 2 3 3 3 3 3 3 3
4 4 5 5 4 4 5 5 4 3 3 3 3 2 2 1 2 2 2 3 4 4 3 3 4 4 4 2 1 1 1 2 2 2 2 2 2 2 3 3 3 3 3 4
4 4 4 4 4 3 4 4 3 3 2 2 3 3 2 2 2 2 2 2 3 4 3 3 4 4 3 1 1 1 1 1 2 2 2 2 2 2 3 3 3 3 3 3
3 3 4 4 4 3 3 3 2 2 2 2 3 2 2 2 1 1 2 2 2 3 3 2 2 3 2 1 1 1 1 1 1 2 2 2 3 3 3 3 3 3 3 3
3 3 3 3 3 3 2 2 2 2 2 2 3 3 2 2 2 2 2 2 2 2 2 2 2 2 1 1 1 1 1 1 1 1 2 2 2 3 3 3 3 3 3 3
Wind_Direction
258 265 261 259 259 249 239 236 242 252 257 266 272 279 287 295 301 306 309 312 312 310 305 304 305 301 288 276 262 233 214 214 219 217 209 202 199 198 196 196 198 197 196 199
265 258 259 265 258 251 250 247 247 255 263 264 264 267 273 279 287 292 297 301 304 303 302 301 300 299 292 279 263 234 220 223 222 212 206 203 202 196 194 197 197 193 197 199
268 270 280 262 245 237 237 232 233 247 257 272 276 267 266 272 275 275 282 288 293 295 294 293 292 289 285 279 269 240 230 228 218 209 209 208 199 195 197 197 193 196 200 198
262 263 249 253 218 219 234 245 240 244 259 267 265 267 265 263 266 274 279 283 284 285 287 288 288 288 288 287 276 250 240 235 222 210 211 205 196 200 200 194 194 200 201 200
232 247 265 270 241 209 224 252 242 247 259 270 278 286 277 270 264 267 273 277 279 280 284 291 294 295 296 298 293 267 252 241 226 210 206 200 199 201 198 192 196 199 196 195
228 240 250 251 234 198 193 266 254 240 253 265 273 271 275 285 278 277 281 284 285 289 293 296 299 301 293 294 296 281 267 251 230 210 203 202 201 197 193 191 193 189 192 194
232 243 259 253 240 148 199 256 267 234 253 263 244 247 270 286 285 283 289 290 288 288 288 291 299 302 296 304 297 293 291 274 240 216 208 203 194 186 177 176 177 183 187 192
215 233 250 234 164 193 230 266 278 262 262 269 272 278 284 286 283 289 296 299 299 297 297 305 308 303 305 302 302 307 296 275 251 223 205 189 178 178 176 175 177 179 179 183
212 230 249 212 214 231 235 257 266 270 278 280 286 292 293 288 286 288 291 297 302 298 299 306 304 284 284 297 308 305 297 281 269 235 202 189 182 179 177 178 179 181 181 187
247 255 258 262 263 264 258 258 269 276 281 283 286 291 293 293 293 294 295 295 300 300 303 307 307 298 283 298 306 305 300 292 279 227 205 193 186 184 183 184 183 183 186 188
249 258 271 265 257 261 267 269 275 280 277 278 284 288 290 293 293 293 294 298 300 297 299 303 312 309 308 305 294 290 296 304 288 251 210 201 195 198 197 201 192 188 191 185
249 244 242 260 261 266 273 276 275 278 284 284 279 283 291 291 293 296 298 305 309 305 301 304 310 309 310 303 283 277 295 294 271 246 219 203 184 160 146 167 172 177 178 179
249 255 253 263 269 265 268 276 277 273 274 281 285 283 285 288 294 298 301 307 305 302 300 303 306 304 304 301 296 278 270 270 259 244 221 200 181 172 158 99 115 142 156 161
246 252 259 259 262 268 269 274 278 277 276 275 280 286 287 289 294 298 298 299 299 302 303 306 307 305 310 309 302 290 279 266 251 235 223 201 183 175 171 167 163 146 147 150
243 238 247 263 270 274 272 275 279 280 282 284 284 286 291 292 295 297 298 299 302 305 307 311 309 307 313 312 305 293 280 264 250 230 213 190 170 161 159 160 157 148 131 142
254 253 253 256 261 267 273 272 272 276 280 282 286 288 286 284 287 293 298 302 303 304 308 310 306 308 310 307 308 299 281 264 257 215 171 157 152 154 154 152 152 155 161 157
253 258 261 267 269 273 272 269 268 273 276 277 278 284 286 287 290 294 302 307 302 302 306 305 303 308 308 303 300 291 287 260 229 168 154 154 151 154 156 153 157 161 162 162
251 257 261 266 275 278 281 282 282 281 278 278 282 282 280 279 281 287 295 302 310 317 315 306 303 312 313 306 300 289 247 236 203 151 140 142 139 139 139 139 144 147 138 139
294 287 287 283 280 278 280 283 284 282 280 279 276 275 275 274 275 281 289 295 303 309 313 316 321 324 312 306 321 322 143 155 138 119 126 134 126 128 133 138 144 147 144 142
330 323 316 311 306 296 294 295 291 287 285 283 279 277 278 278 277 280 288 291 289 288 300 314 324 317 309 308 346 83 146 155 148 136 131 132 131 130 130 134 139 141 143 146
333 330 325 320 316 315 309 303 297 293 294 288 274 270 273 283 286 282 288 298 303 306 310 318 323 314 316 330 19 98 138 145 143 140 138 134 132 132 131 134 137 139 142 141
338 332 326 323 322 320 317 314 306 300 299 298 291 281 282 290 300 302 284 271 292 315 329 324 318 322 336 1 63 93 117 133 134 133 135 138 141 141 138 138 140 140 141 144
328 325 324 323 318 313 315 319 317 312 304 300 294 278 268 269 274 280 300 300 303 322 333 319 325 341 356 19 61 78 98 117 126 133 139 140 144 146 147 146 146 146 149 150
327 327 323 320 320 319 320 323 325 325 320 320 314 300 282 293 307 292 278 309 327 333 335 330 344 359 13 29 54 72 91 109 122 131 132 132 135 139 143 146 146 148 150 150
324 320 321 323 322 313 310 320 330 334 340 339 333 330 321 300 292 310 322 326 337 345 346 357 14 15 17 36 52 70 89 114 129 133 135 137 140 144 145 148 151 151 152 155
318 315 307 304 302 302 310 316 322 324 329 332 334 335 336 341 345 343 352 354 354 354 356 356 3 8 18 46 60 64 76 93 99 114 134 141 144 145 144 146 147 152 154 156
320 316 315 322 321 315 312 311 312 315 316 315 323 334 345 352 358 5 6 3 3 5 5 2 4 10 21 40 59 66 74 89 103 118 132 139 143 145 146 146 149 148 150 155
Height
1433 1430 1430 1428 1425 1424 1423 1419 1418 1408 1402 1393 1393 1393 1391 1389 1387 1385 1382 1381 1379 1377 1376 1374 1372 1371 1370 1370 1370 1370 1371 1372 1374 1377 1380 1382 1385 1388 1391 1394 1397 1400 1403 1405
1430 1425 1424 1421 1417 1416 1413 1410 1406 1402 1394 1387 1389 1389 1387 1385 1384 1382 1380 1378 1376 1374 1373 1371 1369 1368 1367 1365 1365 1365 1365 1367 1368 1370 1372 1375 1378 1380 1383 1386 1389 1392 1395 1397
1427 1422 1421 1414 1405 1404 1402 1398 1398 1394 1384 1383 1385 1383 1382 1380 1379 1377 1376 1374 1373 1371 1369 1367 1366 1364 1362 1361 1360 1359 1360 1361 1362 1364 1365 1368 1370 1373 1376 1379 1382 1385 1387 1390
1426 1424 1420 1399 1392 1392 1392 1388 1387 1384 1380 1380 1379 1377 1377 1376 1374 1372 1371 1370 1368 1366 1364 1363 1361 1360 1358 1356 1354 1354 1353 1354 1356 1357 1359 1361 1363 1366 1369 1371 1374 1377 1380 1382
1423 1419 1406 1393 1389 1388 1388 1384 1380 1378 1376 1375 1374 1374 1371 1370 1370 1368 1367 1365 1363 1361 1359 1358 1356 1354 1352 1350 1349 1348 1348 1348 1349 1351 1352 1354 1356 1358 1361 1364 1367 1370 1372 1375
1416 1413 1403 1387 1381 1380 1383 1382 1374 1373 1372 1371 1372 1374 1367 1366 1365 1364 1362 1360 1358 1356 1355 1353 1351 1350 1347 1345 1343 1342 1342 1343 1344 1345 1346 1347 1349 1352 1354 1357 1360 1363 1365 1368
1408 1404 1392 1382 1378 1379 1386 1378 1370 1369 1368 1368 1368 1367 1364 1362 1360 1358 1357 1355 1353 1352 1350 1348 1347 1345 1342 1340 1339 1338 1337 1337 1338 1339 1340 1342 1343 1346 1348 1351 1354 1356 1359 1362
1400 1398 1388 1376 1377 1377 1372 1369 1368 1367 1366 1365 1363 1361 1359 1357 1355 1353 1351 1350 1348 1346 1344 1343 1342 1341 1338 1336 1334 1334 1333 1333 1333 1333 1334 1336 1338 1340 1342 1345 1347 1350 1352 1355
1385 1380 1372 1371 1370 1368 1367 1367 1366 1365 1363 1362 1360 1357 1355 1353 1350 1348 1347 1345 1343 1341 1339 1338 1337 1336 1334 1332 1331 1330 1328 1328 1328 1328 1329 1331 1332 1334 1336 1338 1341 1343 1346 1348
1378 1371 1369 1367 1366 1365 1365 1364 1363 1362 1360 1358 1356 1353 1350 1348 1345 1343 1341 1340 1339 1337 1334 1332 1332 1331 1329 1328 1327 1326 1324 1323 1323 1323 1324 1325 1327 1329 1330 1332 1334 1337 1339 1342
1371 1366 1365 1362 1362 1361 1361 1359 1358 1356 1355 1353 1351 1349 1346 1343 1341 1339 1337 1335 1334 1332 1330 1328 1326 1325 1325 1324 1323 1322 1320 1319 1319 1319 1319 1320 1322 1323 1325 1326 1328 1331 1333 1336
1363 1360 1361 1357 1356 1357 1356 1354 1352 1351 1349 1347 1346 1343 1341 1338 1336 1334 1332 1330 1329 1327 1325 1323 1322 1320 1320 1320 1319 1317 1316 1315 1315 1315 1315 1316 1317 1318 1320 1322 1324 1327 1330 1332
1354 1353 1354 1351 1351 1350 1349 1348 1347 1345 1344 1342 1340 1338 1336 1333 1331 1329 1328 1326 1324 1322 1321 1319 1317 1316 1316 1315 1315 1313 1312 1311 1311 1311 1311 1312 1312 1313 1315 1317 1320 1323 1325 1328
1347 1348 1346 1344 1344 1343 1343 1342 1341 1339 1337 1336 1334 1333 1331 1328 1326 1324 1323 1321 1319 1318 1316 1314 1313 1312 1312 1311 1310 1309 1308 1308 1308 1308 1308 1308 1308 1309 1311 1313 1315 1317 1321 1323
1340 1340 1339 1337 1337 1336 1336 1335 1334 1333 1331 1330 1329 1328 1326 1323 1321 1319 1318 1317 1315 1313 1312 1310 1309 1308 1308 1307 1306 1305 1304 1304 1304 1304 1304 1304 1305 1306 1308 1310 1312 1314 1317 1320
1332 1332 1332 1332 1330 1330 1329 1329 1328 1326 1326 1324 1323 1322 1321 1319 1317 1315 1314 1312 1311 1308 1307 1307 1305 1305 1304 1303 1302 1301 1301 1301 1301 1300 1300 1301 1302 1303 1304 1306 1308 1310 1313 1315
1327 1326 1326 1326 1325 1324 1323 1323 1322 1321 1320 1319 1318 1317 1315 1314 1312 1310 1309 1308 1307 1305 1304 1303 1302 1301 1300 1299 1298 1297 1297 1297 1297 1297 1297 1298 1299 1300 1302 1303 1305 1308 1310 1313
1322 1322 1322 1321 1320 1319 1318 1317 1316 1316 1315 1314 1313 1312 1310 1309 1307 1306 1305 1304 1303 1301 1300 1300 1299 1297 1296 1295 1295 1294 1293 1293 1294 1294 1295 1296 1297 1298 1300 1302 1304 1306 1308 1311
1317 1317 1317 1316 1315 1314 1313 1312 1311 1310 1309 1309 1308 1306 1305 1304 1303 1302 1301 1300 1298 1297 1296 1296 1295 1294 1293 1292 1292 1291 1291 1291 1292 1292 1293 1294 1295 1297 1298 1300 1302 1304 1306 1308
1314 1313 1312 1311 1310 1310 1308 1307 1306 1305 1305 1304 1303 1302 1301 1300 1299 1298 1297 1296 1295 1294 1293 1292 1291 1291 1290 1290 1290 1289 1289 1289 1290 1291 1291 1292 1293 1295 1296 1298 1300 1302 1304 1307
1311 1310 1309 1308 1306 1305 1304 1303 1302 1301 1300 1300 1299 1297 1297 1296 1295 1294 1293 1292 1291 1291 1290 1289 1288 1288 1288 1287 1287 1287 1287 1288 1288 1289 1290 1291 1292 1293 1295 1296 1298 1301 1303 1305
1309 1308 1307 1305 1304 1302 1301 1300 1298 1297 1296 1295 1294 1293 1293 1292 1291 1290 1290 1289 1289 1288 1287 1286 1286 1285 1285 1285 1285 1285 1285 1286 1287 1287 1288 1289 1290 1292 1293 1295 1297 1299 1301 1303
1308 1306 1305 1303 1301 1299 1298 1296 1295 1294 1293 1292 1291 1290 1289 1289 1288 1287 1286 1287 1286 1285 1285 1284 1284 1283 1283 1283 1283 1283 1283 1284 1285 1286 1287 1288 1289 1291 1292 1294 1295 1297 1299 1301
1306 1304 1303 1301 1299 1297 1295 1294 1292 1291 1290 1289 1288 1288 1287 1286 1285 1285 1285 1284 1284 1283 1283 1282 1282 1282 1281 1281 1281 1281 1282 1283 1283 1285 1286 1287 1288 1289 1291 1293 1294 1296 1297 1299
1303 1302 1300 1299 1297 1295 1293 1292 1290 1289 1288 1287 1286 1286 1286 1285 1284 1283 1283 1282 1281 1281 1281 1280 1280 1280 1280 1280 1280 1280 1281 1281 1282 1283 1284 1285 1287 1288 1290 1291 1293 1294 1296 1298
1301 1299 1298 1296 1295 1293 1292 1290 1289 1288 1287 1285 1285 1284 1284 1284 1283 1282 1281 1280 1280 1280 1279 1279 1279 1279 1278 1279 1279 1279 1280 1280 1281 1282 1283 1284 1286 1287 1288 1290 1291 1293 1295 1296
1299 1297 1295 1294 1293 1292 1290 1289 1288 1286 1286 1285 1283 1283 1283 1282 1281 1281 1280 1279 1279 1279 1278 1278 1278 1277 1277 1277 1278 1278 1279 1279 1280 1281 1282 1284 1285 1286 1287 1289 1290 1292 1293 1295